Temperature
18 18 18 18 18 18 18 18 17 17 18 18 18 18 18 18 18 18 18 18 18 18 17 17 17 17 17 17 17 16 16 16 16 16 16 16 16 16 16 16 16 16 15
18 18 18 18 18 18 18 18 18 18 18 18 18 18 18 18 18 17 18 18 18 18 18 17 17 17 17 17 17 17 16 16 16 16 16 16 16 16 16 16 16 16 15
18 18 18 18 18 18 18 18 18 18 18 18 18 18 18 18 17 17 17 17 18 18 18 17 17 17 17 17 17 17 16 16 16 16 16 16 16 16 16 16 16 16 15
18 18 18 18 18 18 18 18 18 18 18 18 18 18 18 18 17 17 17 17 17 17 17 17 17 17 17 17 17 17 16 16 16 16 16 16 16 16 16 16 16 16 15
18 18 18 18 18 18 18 18 18 18 18 18 18 18 18 18 18 18 17 17 17 17 17 17 17 17 17 17 17 17 17 16 16 16 16 16 16 16 16 16 16 15 15
18 18 18 18 18 18 18 18 18 18 18 18 18 18 18 18 18 18 18 18 17 17 17 17 17 17 17 17 17 17 17 16 16 16 16 16 16 16 16 16 16 15 15
18 18 18 18 18 18 18 18 18 18 18 18 18 18 18 18 18 18 18 18 17 17 17 17 17 17 17 17 17 17 17 16 16 16 16 16 16 16 16 15 15 15 15
18 18 18 18 18 18 18 18 18 18 18 18 18 18 18 18 18 18 18 18 18 17 17 17 17 17 17 17 17 17 17 16 16 16 16 16 16 16 15 15 15 15 15
18 18 18 18 18 18 18 18 18 18 18 18 18 18 18 18 18 18 18 18 18 18 17 17 17 17 17 17 17 17 16 16 16 16 16 16 16 16 15 15 15 15 15
18 18 18 18 18 18 18 18 18 18 18 18 18 18 18 18 18 18 18 18 18 18 18 17 17 17 17 17 17 17 16 16 16 16 16 16 16 15 15 15 15 15 14
18 18 18 18 18 18 18 18 18 18 18 18 18 18 18 18 18 18 18 18 18 18 18 17 17 17 17 17 17 16 16 16 16 16 16 16 15 15 15 15 14 14 14
18 18 18 18 18 18 18 18 18 18 18 18 18 18 18 18 18 18 18 18 18 18 18 17 17 17 17 17 17 16 16 16 16 16 16 15 15 15 15 14 14 14 14
18 18 18 18 18 18 18 18 18 18 18 18 18 18 18 18 18 18 18 18 18 18 17 17 17 17 17 17 17 16 16 16 16 16 15 15 15 15 14 14 14 14 14
18 18 18 18 18 18 18 18 18 18 18 18 18 18 18 18 18 18 18 18 18 17 17 17 17 17 17 17 16 16 16 16 15 15 15 15 15 14 14 14 14 13 13
18 18 18 18 18 18 18 18 18 18 18 18 18 18 18 18 18 18 18 18 18 17 17 17 16 16 16 16 16 16 16 15 15 15 15 14 14 14 14 14 13 13 13
18 18 18 18 18 18 18 18 18 18 18 18 17 17 17 17 18 18 18 18 18 18 17 17 16 16 16 16 16 15 15 15 15 14 14 14 14 14 13 13 13 12 12
18 18 18 18 18 18 17 17 17 17 17 17 17 17 17 17 17 17 17 17 17 17 17 16 16 16 15 15 15 15 15 14 14 14 14 13 13 13 13 12 12 12 11
18 18 18 18 17 17 17 17 17 17 17 17 17 17 17 17 17 17 17 17 17 17 17 16 16 15 15 15 15 14 14 14 14 13 13 13 13 12 12 12 11 11 11
18 18 17 17 17 17 17 17 17 17 17 17 17 17 17 17 17 17 17 17 17 16 16 16 15 15 15 14 14 14 13 13 13 12 12 12 12 12 11 11 11 11 10
18 17 17 17 17 17 17 17 17 17 17 16 16 16 16 16 16 17 17 16 16 16 16 15 15 14 14 14 13 13 13 12 12 12 12 12 11 11 11 10 10 10 10
17 17 17 17 17 17 17 17 17 17 16 16 16 16 16 16 16 16 16 16 16 16 15 15 14 14 14 13 13 13 12 12 11 11 11 11 11 10 10 10 10 9 9
17 17 17 17 17 17 17 17 16 16 16 16 16 16 16 16 16 16 16 16 15 15 15 15 14 14 14 13 13 12 12 11 11 10 10 10 10 10 9 9 9 9 9
17 17 17 16 16 16 16 16 16 16 16 16 16 16 15 15 15 15 15 15 15 15 14 14 14 14 13 13 13 12 12 11 11 11 10 10 9 9 9 9 8 8 8
17 17 16 16 16 16 16 16 16 16 15 15 15 15 15 15 15 15 15 14 14 14 14 14 13 13 13 13 12 12 12 11 10 10 10 9 9 9 9 8 8 8 8
16 16 16 16 16 16 16 16 15 15 15 15 15 15 15 15 14 14 14 14 13 13 13 13 13 13 12 12 12 11 11 10 10 9 9 9 9 9 8 8 8 8 7
16 16 16 16 16 16 15 15 15 15 15 15 14 14 14 14 14 13 13 13 13 13 12 12 12 12 12 11 11 11 11 10 10 9 9 9 9 8 8 8 8 8 7
Wind_Speed
3 5 4 5 5 7 6 4 4 3 3 3 3 4 3 4 9 12 12 14 13 13 12 11 10 9 9 9 9 8 8 7 7 7 6 6 5 5 5 4 4 3 3
6 4 4 3 3 5 5 5 6 3 2 2 1 3 3 4 7 11 13 13 13 13 12 11 11 10 10 9 9 9 8 8 8 7 7 6 6 5 5 4 4 3 3
7 5 4 3 4 6 5 3 5 5 3 3 3 3 3 4 6 8 12 13 12 13 13 13 12 11 11 10 9 9 9 9 8 8 8 7 6 6 5 5 4 4 4
8 5 3 3 6 6 5 3 2 3 3 3 3 3 3 3 5 7 10 13 13 13 13 14 14 13 12 11 10 10 10 9 9 9 9 8 7 7 6 5 5 4 4
8 6 3 3 5 4 3 3 3 2 2 2 3 3 3 4 4 6 7 9 12 13 13 15 16 15 13 12 11 11 11 10 10 10 9 9 8 8 7 7 6 6 5
7 6 4 5 5 3 3 2 3 2 1 2 2 2 3 4 4 3 5 7 9 11 13 14 14 14 15 14 13 12 11 11 11 11 10 10 9 9 8 7 7 6 5
7 5 2 4 3 2 3 4 3 3 3 2 1 1 1 3 4 4 4 4 6 9 11 15 14 13 13 16 15 14 12 12 11 11 11 10 10 10 9 9 8 6 5
7 7 4 4 4 3 3 3 2 2 3 3 2 2 1 1 1 4 4 5 5 7 8 13 14 13 12 12 14 15 14 13 12 11 11 11 10 10 9 9 8 7 6
8 6 6 4 4 4 5 5 5 4 3 2 3 3 2 3 1 1 3 4 5 4 4 8 12 13 13 12 12 15 15 14 12 11 10 10 10 10 9 9 8 7 7
7 7 5 5 3 3 5 6 6 5 4 3 3 3 3 2 2 1 1 3 5 5 4 5 7 11 12 11 11 12 13 13 11 10 9 9 9 9 8 7 6 6 6
6 7 6 5 4 4 4 5 4 5 4 4 3 3 4 3 4 3 3 2 2 3 3 3 4 7 9 10 11 11 13 13 12 10 8 8 7 7 7 7 6 5 5
5 7 7 5 5 5 5 4 3 5 4 4 4 4 3 3 4 3 3 4 3 2 3 2 3 5 7 8 9 11 13 13 12 10 9 8 8 7 7 7 7 7 6
5 6 6 5 5 5 5 4 4 5 5 5 5 5 3 4 2 2 3 3 3 2 3 2 2 4 6 7 8 11 12 13 12 12 11 10 10 9 9 8 8 8 7
5 5 6 5 6 6 6 5 5 6 5 5 7 5 4 4 2 3 3 3 3 2 2 3 2 4 5 8 10 12 11 14 14 14 13 12 12 11 11 10 10 9 8
5 5 5 5 5 6 5 4 5 5 4 5 5 5 5 4 4 3 3 3 4 4 3 3 3 3 7 9 11 11 11 14 15 15 14 13 13 13 12 12 11 11 10
4 3 4 5 5 5 5 5 4 4 4 4 4 4 4 4 3 3 4 3 3 4 3 2 2 3 7 9 10 10 11 13 14 14 14 14 13 13 12 12 11 11 10
3 4 4 5 5 5 5 5 5 4 5 5 5 5 5 4 3 3 3 2 2 3 3 2 2 3 4 6 9 11 11 12 11 13 14 14 13 13 12 11 11 10 10
4 4 4 4 5 4 4 5 6 5 5 5 5 4 4 4 4 4 3 4 3 3 4 5 4 3 4 6 7 7 9 10 11 12 14 14 13 13 12 11 11 10 10
3 4 4 4 4 4 4 4 4 4 3 4 4 4 4 4 4 4 3 3 3 4 4 6 5 3 3 5 6 5 7 7 9 11 12 12 12 12 12 11 11 10 9
3 2 2 3 3 3 3 2 3 3 2 2 2 2 3 3 4 4 4 3 3 3 4 5 5 5 5 5 6 6 5 4 4 8 9 10 12 11 11 10 10 9 9
3 2 2 2 2 2 2 2 2 3 2 1 1 1 1 1 1 1 3 3 4 4 5 6 6 5 5 6 6 5 6 5 3 4 4 7 9 9 9 9 9 8 8
2 2 2 1 1 1 2 1 0 1 1 1 1 1 1 1 2 3 4 3 3 4 5 5 5 7 7 6 5 7 6 5 4 4 4 4 7 4 7 8 10 10 9
2 2 2 2 2 2 3 3 2 0 1 1 1 1 2 1 2 3 4 4 3 2 3 4 5 6 6 7 7 7 6 4 3 5 4 3 4 4 7 9 13 11 10
2 2 2 2 2 3 4 3 2 0 1 0 0 1 1 1 2 3 4 4 4 3 2 2 3 4 4 5 6 6 7 5 3 3 4 3 3 3 6 10 13 12 10
2 2 2 2 3 3 4 3 2 1 2 1 1 2 2 3 5 5 5 5 5 4 8 10 9 9 10 10 8 5 6 6 4 3 2 2 3 3 4 4 11 13 12
2 2 2 2 3 3 3 3 1 1 2 2 2 3 5 4 5 5 4 5 5 3 5 6 7 8 8 9 8 5 5 5 4 3 3 2 3 3 3 3 7 12 12
Wind_Direction
143 135 143 153 165 152 163 183 158 147 158 153 160 143 123 112 120 126 140 152 154 155 158 161 160 160 159 161 162 162 163 163 161 161 162 162 161 163 160 162 163 161 159
138 143 147 170 171 157 161 167 148 155 188 166 153 139 149 131 125 135 146 157 161 163 167 169 170 169 169 171 174 176 177 177 177 178 180 181 183 184 184 188 194 192 188
143 150 147 180 171 151 144 159 155 164 190 176 165 175 170 150 150 146 152 161 168 174 178 179 178 179 180 184 186 189 190 190 191 193 195 197 198 200 201 205 211 212 207
156 164 170 183 165 164 166 167 182 178 181 177 175 188 158 154 159 168 171 170 171 177 183 187 186 188 190 195 197 198 199 199 200 203 205 204 205 207 209 212 211 209 206
170 173 182 147 172 175 176 189 164 170 176 196 195 182 172 172 171 189 187 180 175 172 177 188 191 192 196 201 205 205 205 205 205 208 209 208 209 210 213 215 217 218 220
179 187 177 172 202 182 168 156 133 154 169 211 235 177 194 179 181 189 189 186 181 181 180 179 185 196 203 206 209 210 209 209 208 207 209 211 213 212 213 216 220 223 223
181 198 208 163 201 186 175 174 171 184 211 202 190 182 238 204 185 183 188 183 188 192 178 172 182 190 198 209 211 209 210 211 210 209 210 214 216 215 215 216 218 219 220
194 199 206 193 185 181 188 197 191 209 219 201 192 181 205 271 247 210 185 185 191 187 182 178 182 186 190 192 205 209 212 214 212 210 212 216 217 217 215 214 212 212 217
203 215 190 209 186 191 190 198 200 210 227 225 209 186 184 208 216 253 203 186 179 180 183 176 184 187 189 187 190 202 206 206 206 206 207 209 210 211 212 213 213 213 215
205 208 203 207 207 215 189 200 201 206 216 234 229 228 217 168 175 207 243 201 187 190 187 190 185 178 181 176 175 180 191 195 199 201 201 203 205 206 204 202 200 198 196
208 213 208 201 205 224 217 216 183 201 216 232 236 229 225 202 205 191 208 216 190 189 187 191 159 156 167 171 170 173 181 186 188 190 192 190 190 187 182 173 162 160 160
210 215 214 198 208 218 221 211 193 207 221 231 252 256 234 223 213 205 203 197 197 204 174 147 139 136 155 162 167 169 172 175 176 177 175 170 164 159 152 148 141 137 136
210 209 213 196 210 215 221 208 199 221 223 225 239 254 255 253 232 220 194 196 198 194 165 153 135 131 147 146 145 152 159 162 161 157 151 144 138 134 130 127 126 125 122
220 200 200 200 209 214 221 211 215 217 218 220 235 242 254 260 243 221 207 194 202 202 173 158 120 120 127 131 139 142 146 153 152 148 142 137 133 129 126 124 120 115 115
220 197 193 198 211 219 224 209 224 226 210 218 232 232 235 249 239 231 220 199 197 206 202 176 149 137 127 124 137 138 139 146 146 143 140 137 134 129 125 122 119 116 113
226 194 191 201 210 213 217 221 230 222 214 224 232 233 232 256 264 237 225 220 207 196 196 164 141 140 131 131 136 134 136 139 142 142 140 138 137 134 131 128 124 120 115
202 203 202 211 214 214 216 213 230 228 217 219 230 227 222 240 257 258 233 214 209 186 169 143 124 124 124 125 128 130 131 130 132 140 141 140 138 136 134 133 131 128 122
205 209 209 212 218 212 214 213 226 227 222 223 228 232 230 236 236 251 248 232 219 191 166 158 158 156 137 135 134 134 134 134 131 138 142 141 141 139 139 140 137 133 127
208 209 206 207 218 216 218 218 224 238 236 234 231 227 231 234 241 237 234 233 214 197 165 161 165 160 149 142 133 130 123 126 132 137 139 141 144 145 147 145 142 139 134
200 202 203 206 221 220 215 213 223 231 234 251 260 247 240 235 240 232 228 217 203 177 161 158 158 160 156 152 147 147 140 143 139 141 140 144 147 148 151 150 149 147 142
207 187 197 206 214 214 209 206 215 211 194 212 259 271 253 211 236 237 227 200 179 170 168 169 168 164 167 168 170 169 160 151 132 140 140 154 151 150 151 150 152 151 147
191 178 178 169 169 195 86 93 165 170 176 189 207 235 222 143 101 108 108 118 143 172 179 182 182 177 176 174 168 166 161 162 165 169 159 167 157 156 159 157 161 161 160
173 169 157 143 131 101 82 83 55 330 171 191 209 231 237 166 118 118 105 99 95 120 168 186 182 177 173 177 171 170 170 169 165 164 156 163 157 160 165 165 167 170 173
163 154 145 144 135 108 93 89 61 135 141 80 59 110 131 136 113 114 114 100 80 62 96 138 153 161 157 159 168 164 159 139 117 142 149 160 167 164 151 157 172 178 185
165 164 152 147 133 110 88 78 53 130 120 107 91 69 90 93 88 106 121 120 109 87 74 88 99 108 113 121 128 141 156 155 154 165 175 165 163 151 150 165 184 191 198
177 169 143 135 129 118 100 83 59 172 146 128 97 84 75 98 106 109 132 139 137 131 119 104 101 109 118 126 130 139 159 166 155 158 171 172 161 153 161 178 184 195 207
Height
1573 1574 1575 1576 1577 1578 1579 1580 1582 1583 1584 1585 1586 1587 1588 1589 1589 1589 1590 1591 1592 1593 1594 1595 1596 1597 1598 1600 1601 1602 1603 1604 1605 1605 1606 1606 1607 1607 1608 1608 1609 1609 1609
1572 1574 1575 1576 1578 1579 1580 1581 1582 1583 1584 1585 1586 1587 1588 1589 1589 1590 1590 1591 1592 1593 1594 1595 1596 1597 1598 1599 1600 1601 1602 1603 1604 1605 1605 1606 1607 1607 1608 1608 1608 1609 1609
1572 1574 1575 1576 1578 1579 1580 1581 1582 1583 1584 1586 1586 1587 1588 1589 1589 1590 1590 1591 1592 1593 1594 1595 1596 1597 1598 1599 1600 1600 1602 1603 1603 1604 1605 1605 1606 1606 1607 1607 1608 1608 1608
1572 1573 1575 1576 1577 1579 1580 1581 1582 1583 1584 1585 1586 1587 1587 1588 1589 1590 1590 1591 1591 1592 1593 1594 1595 1596 1597 1598 1599 1600 1600 1601 1602 1603 1604 1604 1605 1605 1606 1606 1607 1607 1607
1571 1573 1574 1576 1577 1578 1580 1581 1582 1583 1584 1584 1585 1586 1586 1587 1588 1589 1590 1591 1591 1591 1592 1593 1594 1595 1596 1597 1598 1598 1599 1600 1601 1602 1602 1603 1604 1604 1604 1605 1605 1606 1606
1570 1572 1573 1575 1576 1578 1579 1580 1581 1582 1583 1584 1584 1585 1585 1586 1587 1588 1589 1590 1590 1591 1591 1592 1593 1594 1595 1595 1596 1597 1598 1599 1599 1600 1601 1601 1602 1602 1603 1603 1604 1604 1604
1568 1570 1572 1573 1575 1577 1578 1579 1580 1581 1582 1583 1584 1584 1585 1585 1586 1587 1588 1588 1589 1590 1591 1591 1591 1592 1593 1594 1595 1595 1596 1597 1598 1598 1599 1599 1600 1600 1601 1601 1601 1602 1602
1567 1569 1570 1572 1573 1575 1576 1577 1578 1579 1581 1582 1583 1583 1584 1585 1585 1585 1586 1587 1588 1589 1589 1590 1590 1591 1591 1592 1593 1594 1594 1595 1596 1596 1597 1597 1598 1598 1598 1599 1599 1600 1600
1564 1566 1568 1570 1572 1573 1574 1576 1577 1578 1579 1580 1581 1582 1582 1582 1583 1584 1585 1585 1586 1587 1588 1588 1589 1590 1590 1590 1591 1592 1592 1593 1593 1594 1594 1595 1595 1596 1596 1596 1597 1597 1597
1561 1564 1566 1567 1569 1571 1572 1573 1574 1576 1577 1578 1579 1579 1580 1580 1582 1582 1583 1583 1584 1585 1586 1587 1587 1588 1588 1589 1589 1590 1590 1591 1591 1592 1592 1593 1593 1593 1594 1594 1594 1594 1595
1558 1561 1563 1565 1566 1568 1570 1571 1572 1573 1575 1576 1576 1577 1578 1578 1579 1580 1580 1581 1582 1582 1583 1584 1585 1586 1586 1586 1587 1587 1588 1589 1589 1590 1590 1590 1591 1591 1591 1592 1592 1592 1592
1555 1558 1559 1561 1563 1564 1566 1568 1569 1570 1572 1573 1574 1575 1576 1576 1576 1577 1577 1578 1579 1580 1581 1581 1582 1583 1583 1583 1584 1585 1585 1586 1587 1587 1588 1588 1588 1589 1589 1589 1589 1590 1590
1552 1554 1556 1558 1560 1561 1563 1565 1566 1567 1569 1570 1571 1572 1572 1573 1574 1574 1575 1575 1576 1577 1578 1579 1579 1580 1581 1581 1582 1582 1583 1583 1584 1584 1585 1585 1586 1586 1587 1587 1587 1587 1588
1549 1551 1553 1555 1556 1558 1560 1561 1563 1564 1565 1566 1567 1568 1569 1570 1571 1571 1572 1573 1573 1575 1575 1576 1576 1577 1578 1578 1579 1580 1580 1580 1581 1582 1582 1583 1583 1584 1584 1585 1585 1585 1585
1546 1548 1549 1551 1553 1555 1556 1558 1559 1560 1562 1563 1564 1565 1566 1566 1568 1568 1569 1570 1571 1571 1572 1573 1573 1574 1575 1575 1576 1577 1577 1578 1578 1579 1580 1580 1581 1581 1582 1582 1583 1583 1583
1543 1545 1546 1548 1550 1551 1553 1554 1555 1557 1558 1559 1560 1561 1562 1563 1564 1565 1566 1566 1567 1568 1568 1569 1570 1572 1572 1572 1573 1574 1575 1575 1576 1577 1577 1578 1578 1579 1579 1580 1580 1580 1580
1541 1542 1544 1545 1547 1548 1550 1551 1552 1553 1554 1555 1556 1557 1558 1559 1559 1560 1561 1562 1562 1563 1564 1565 1567 1568 1569 1569 1570 1571 1572 1573 1573 1574 1575 1576 1576 1577 1577 1578 1578 1578 1578
1538 1540 1541 1543 1544 1545 1547 1548 1548 1550 1551 1552 1553 1553 1554 1555 1555 1556 1557 1557 1558 1559 1560 1561 1563 1564 1565 1566 1567 1568 1569 1570 1571 1572 1573 1573 1574 1574 1575 1575 1575 1575 1575
1536 1538 1539 1540 1541 1542 1544 1544 1545 1546 1547 1548 1549 1550 1550 1550 1551 1552 1552 1553 1554 1555 1556 1557 1558 1560 1562 1563 1564 1565 1566 1567 1568 1569 1570 1571 1571 1572 1572 1572 1572 1573 1573
1535 1536 1537 1538 1539 1540 1540 1541 1542 1543 1543 1544 1545 1545 1546 1546 1547 1547 1548 1548 1549 1550 1551 1553 1554 1556 1557 1559 1560 1561 1563 1564 1565 1566 1567 1568 1568 1569 1570 1570 1570 1570 1570
1533 1534 1535 1536 1536 1537 1537 1538 1539 1539 1540 1540 1541 1541 1542 1542 1542 1543 1543 1544 1545 1546 1547 1549 1550 1552 1553 1555 1556 1558 1559 1561 1562 1564 1564 1565 1566 1566 1567 1567 1568 1568 1568
1532 1533 1533 1534 1534 1535 1535 1536 1536 1536 1537 1537 1537 1537 1538 1538 1538 1538 1539 1540 1541 1542 1543 1545 1546 1547 1548 1550 1552 1554 1556 1557 1559 1561 1562 1563 1564 1564 1565 1565 1566 1566 1566
1530 1531 1531 1532 1532 1532 1533 1533 1534 1534 1534 1534 1534 1534 1534 1534 1535 1535 1535 1536 1537 1538 1540 1541 1541 1543 1544 1547 1549 1550 1552 1554 1555 1557 1559 1560 1561 1562 1563 1563 1564 1564 1564
1529 1529 1529 1530 1530 1531 1531 1531 1531 1531 1531 1531 1531 1531 1531 1531 1531 1532 1532 1532 1533 1534 1536 1537 1538 1540 1542 1544 1546 1547 1549 1551 1553 1554 1556 1557 1558 1560 1561 1561 1562 1563 1563
1526 1527 1527 1528 1528 1528 1529 1529 1529 1529 1529 1529 1528 1528 1528 1528 1528 1529 1529 1530 1530 1531 1533 1534 1536 1537 1539 1541 1542 1544 1545 1547 1549 1551 1552 1554 1555 1557 1558 1559 1560 1561 1561
1524 1525 1525 1525 1526 1526 1526 1526 1526 1526 1526 1526 1526 1526 1526 1526 1526 1526 1527 1527 1528 1529 1530 1531 1533 1534 1536 1537 1539 1540 1542 1544 1545 1548 1549 1551 1552 1554 1555 1557 1558 1558 1559